Miscellaneous Local Product
Issued by NWS North Platte, NE

Home | Current Version | Previous Version | Text Only | Print | Product List | Glossary On
Versions: 1 2 3 4 5 6 7 8 9 10 11 12 13 14 15 16 17 18 19 20 21 22 23 24 25 26 27 28 29 30 31 32 33 34 35 36 37 38 39 40 41 42 43 44 45 46 47 48 49 50
494
AXUS43 KLBF 011010
MISLBF


WESTERN AND NORTH CENTRAL NEBRASKA HOURLY WEATHER ROUNDUP
NATIONAL WEATHER SERVICE NORTH PLATTE NE
500 AM CDT SUN MAY 01 2016

NOTE: "FAIR" INDICATES FEW OR NO CLOUDS BELOW 12,000 FEET WITH NO
SIGNIFICANT WEATHER AND/OR OBSTRUCTIONS TO VISIBILITY.

NOTE: STATIONS NOT REPORTING VARIABLES SUCH AS SKY/WEATHER OR
PRESSURE ARE PROVIDED BY RAWS AND APRS NETWORKS AND ARE NOT UNDER
NATIONAL WEATHER SERVICE QUALITY CONTROL.

...OBSERVATIONS IN AND NEAR THE EASTERN PANHANDLE OF NEBRASKA...

CITY           SKY/WX    TMP DP  RH WIND       PRES   REMARKS
PINE RIDGE     PTCLDY    36  31  82 N8        30.22R WCI  30
CHADRON        CLOUDY    38  32  79 NW3       30.25R
ALLIANCE       MIX PCPN  33  33 100 N10       30.20R WCI  25
SIDNEY         FLURRIES  34  32  92 N21       30.19R WCI  22
CRESCENT LAKE    N/A     34  33  98 N15         N/A  WCI  24
BIG SPRINGS      N/A     35  33  94 N7          N/A  WCI  29
$$

...OBSERVATIONS IN NORTHERN NEBRASKA AND FAR SOUTHERN SOUTH DAKOTA...

CITY           SKY/WX    TMP DP  RH WIND       PRES   REMARKS
WINNER         FAIR      38  35  89 NW6       30.17R WCI  33
VALENTINE      CLOUDY    39  37  92 NW10      30.16S WCI  32
THEDFORD       CLOUDY    37  36  99 N12       30.14R WCI  29
AINSWORTH      DRIZZLE   40  39  97 N10       30.14S WCI  34
O`NEILL        LGT RAIN  42  40  94 N17G23    30.09R
ORD            LGT RAIN  41  39  93 N18       30.03R
BROKEN BOW     RAIN      40  38  93 NE20G28   30.04R WCI  30
VALENTINE NWR    N/A     38  37  97 N9G16       N/A  WCI  31
BUTTE            N/A     41  40  96 N6G14       N/A
HALSEY           N/A     36  36  99 N7G14       N/A  WCI  30
CHAMBERS         N/A     41  40  98 N8G15       N/A
EWING            N/A     42  41  96 NE9         N/A
$$

...OBSERVATIONS IN SOUTHWEST NEBRASKA AND FAR NORTHEAST COLORADO...

CITY           SKY/WX    TMP DP  RH WIND       PRES   REMARKS
HOLYOKE        DRIZZLE   36  34  93 N21       30.15R WCI  24
IMPERIAL       CLOUDY    35  33  92 N21       30.12R WCI  24
OGALLALA       DRIZZLE   36  33  89 N18       30.15R WCI  26
NORTH PLATTE   LGT RAIN  35  33  92 N14       30.10R WCI  26
MCCOOK         MOCLDY    37  34  89 N16       30.06R WCI  28
LEXINGTON      CLOUDY    39  36  89 N16       30.04R WCI  30
PAXTON           N/A     35  34  95 NW12        N/A  WCI  27
STAPLETON        N/A     34  33  96 CALM        N/A
GOTHENBURG       N/A     36  33  90 N9          N/A  WCI  29
CALLAWAY         N/A     34  33  96 N12         N/A  WCI  25
$$

...OBSERVATIONS IN CENTRAL LINCOLN COUNTY AREA...

CITY           SKY/WX    TMP DP  RH WIND       PRES   REMARKS
N.P. AIRPORT   LGT RAIN  35  33  92 N14       30.10R WCI  26
N.P. DOWNTOWN    N/A     34  34 100 N6G13       N/A  WCI  29
N.P. HILLCREST   N/A     34  34  99 N15         N/A  WCI  24
$$

...SOME OBSERVATIONS FROM AROUND THE REGION...

CITY           SKY/WX    TMP DP  RH WIND       PRES   REMARKS
DENVER         LGT SNOW  33  28  81 N17       30.23R WCI  22
LARAMIE        CLOUDY    26  22  84 NE10      30.21F WCI  16
CHEYENNE       CLOUDY    31  28  89 N15G25    30.21S WCI  20
SCOTTSBLUFF    CLOUDY    38  34  85 NW7       30.24R WCI  33
RAPID CITY     CLEAR     34  29  82 N12       30.26R WCI  25
BISMARCK       CLEAR     35  30  82 W5        30.31R WCI  31
PIERRE         CLOUDY    34  30  85 NE9       30.21R WCI  27
SIOUX FALLS    LGT RAIN  42  39  89 NE14      30.11R
OMAHA          DRIZZLE   45  43  93 NE12      29.94R
GRAND ISLAND   LGT RAIN  41  40  96 N15       29.98R FOG
KANSAS CITY    CLOUDY    51  47  86 W5        29.89R
WICHITA        CLEAR     43  39  86 W9        29.97R
OKLAHOMA CITY  PTCLDY    48  40  73 NW14      30.02R
DALLAS         CLEAR     61  52  72 N14       29.89S
AMARILLO       CLOUDY    41  33  73 N20G30    30.10S
DODGE CITY     CLOUDY    39  33  79 NW21      30.03R WCI  29
HAYS           CLOUDY    43  32  65 NW16      29.98S
GOODLAND       CLOUDY    34  32  92 N21G28    30.08R WCI  22
$$




USA.gov is the U.S. government's official web portal to all federal, state and local government web resources and services.